period_start,C,m1,H,J0,J1,J2,J3,J4,J5,JA,JB,JC,JD,JJ,JK,JN,#
2014-05-25 00:01:28,0.00,5.43,0.00,26.55,30.85,33.19,9.40,43.67,1011.26,2020.48,1806.84,2119.01,2278.35,499.99,488.21,37.99,0000 0000 0000 0000 000000
2014-05-25 00:06:28,0.09,5.43,0.00,26.57,30.85,33.19,9.54,43.63,1011.27,2020.79,1806.21,2119.00,2278.07,500.65,488.83,38.04,0000 0000 0000 0000 000000
2014-05-25 00:11:29,0.01,5.43,0.00,26.60,30.85,33.18,9.46,43.58,1011.28,2020.87,1806.01,2118.99,2278.00,500.19,487.95,38.08,0000 0000 0000 0000 000000
2014-05-25 00:16:31,0.00,5.43,0.00,26.62,30.85,33.17,9.43,43.51,1011.36,2020.88,1806.00,2118.97,2278.00,500.01,488.19,38.12,0000 0000 0000 0000 000000
2014-05-25 00:21:32,-0.02,5.43,0.00,26.64,30.85,33.17,9.43,43.52,1011.65,2020.80,1806.00,2118.92,2278.00,499.92,488.26,38.16,0000 0000 0000 0000 000000
2014-05-25 00:26:33,0.04,5.43,0.00,26.67,30.85,33.17,9.42,43.51,1011.73,2020.85,1806.00,2118.65,2277.98,499.58,488.05,38.20,0000 0000 0000 0000 000000
2014-05-25 00:31:34,0.04,5.43,0.00,26.66,30.85,33.18,9.56,43.43,1011.73,2020.88,1805.97,2118.15,2277.85,500.24,488.36,38.24,0000 0000 0000 0000 000000
2014-05-25 00:36:36,0.00,5.43,0.00,26.67,30.85,33.18,9.50,43.50,1011.74,2020.79,1805.88,2118.02,2277.43,499.82,488.16,38.29,0000 0000 0000 0000 000000
2014-05-25 00:41:37,-0.01,5.43,0.00,26.68,30.85,33.19,9.45,43.44,1011.76,2020.65,1805.75,2118.00,2277.16,500.06,488.31,38.33,0000 0000 0000 0000 000000
2014-05-25 00:46:39,-0.01,5.43,0.00,26.67,30.85,33.20,9.49,43.43,1011.75,2020.64,1805.65,2118.00,2277.09,499.96,488.37,38.37,0000 0000 0000 0000 000000
2014-05-25 00:51:40,-0.01,5.43,0.00,26.69,30.86,33.20,9.47,43.63,1011.73,2020.37,1805.34,2118.00,2277.03,499.97,488.29,38.41,0000 0000 0000 0000 000000
2014-05-25 00:56:41,0.02,5.43,0.00,26.70,30.87,33.21,9.46,43.56,1011.73,2020.43,1805.17,2118.00,2277.00,499.80,488.11,38.45,0000 0000 0000 0000 000000
2014-05-25 01:01:42,0.01,5.43,0.00,26.71,30.87,33.22,9.47,43.27,1011.83,2020.41,1805.09,2118.00,2277.00,500.08,488.31,38.49,0000 0000 0000 0000 000000
2014-05-25 01:06:43,-0.03,5.43,0.00,26.72,30.87,33.22,9.41,43.16,1011.81,2020.29,1805.03,2118.00,2277.00,499.81,488.07,38.53,0000 0000 0000 0000 000000
2014-05-25 01:11:44,-0.00,5.43,0.00,26.73,30.87,33.23,9.38,43.69,1011.75,2020.20,1805.00,2117.98,2277.00,500.16,488.24,38.58,0000 0000 0000 0000 000000
2014-05-25 01:16:45,0.02,5.43,0.00,26.72,30.87,33.24,9.47,43.56,1011.67,2020.27,1805.01,2117.99,2277.00,500.06,488.25,38.62,0000 0000 0000 0000 000000
2014-05-25 01:21:46,-0.02,5.43,0.00,26.73,30.88,33.25,9.45,43.45,1011.28,2020.15,1805.00,2117.97,2277.00,500.06,487.95,38.66,0000 0000 0000 0000 000000
2014-05-25 01:26:48,-0.00,5.43,0.00,26.73,30.89,33.25,9.40,43.25,1011.29,2020.08,1805.00,2117.92,2276.98,499.96,487.87,38.70,0000 0000 0000 0000 000000
2014-05-25 01:31:49,0.02,5.43,0.00,26.72,30.90,33.25,9.43,43.35,1011.13,2020.05,1804.98,2117.74,2276.94,500.17,487.96,38.74,0000 0000 0000 0000 000000
2014-05-25 01:36:50,0.05,5.43,0.00,26.72,30.90,33.26,9.50,43.37,1010.62,2020.03,1804.78,2117.32,2276.75,500.31,487.89,38.78,0000 0000 0000 0000 000000
2014-05-25 01:41:51,0.10,5.44,0.00,26.72,30.90,33.26,9.39,43.58,1010.63,2020.23,1804.05,2117.03,2276.21,499.74,487.64,38.83,0000 0000 0000 0000 000000
2014-05-25 01:46:52,0.08,5.44,0.00,26.72,30.90,33.26,9.43,43.22,1010.79,2020.22,1803.54,2116.64,2275.78,499.85,487.44,38.87,0000 0000 0000 0000 000000
2014-05-25 01:51:53,0.07,5.45,0.00,26.75,30.90,33.27,9.45,43.20,1011.06,2020.30,1802.87,2116.01,2275.03,499.95,487.83,38.91,0000 0000 0000 0000 000000
2014-05-25 01:56:55,0.02,5.45,0.00,26.79,30.90,33.27,9.39,43.08,1011.20,2020.23,1802.48,2115.86,2274.95,499.52,487.51,38.95,0000 0000 0000 0000 000000
2014-05-25 02:01:56,0.09,5.45,0.00,26.80,30.91,33.27,9.43,43.15,1011.24,2020.21,1801.98,2115.09,2274.17,500.16,488.07,38.99,0000 0000 0000 0000 000000
2014-05-25 02:06:57,0.06,5.45,0.00,26.82,30.92,33.28,9.44,43.34,1011.25,2020.18,1801.27,2114.81,2273.81,500.01,487.79,39.03,0000 0000 0000 0000 000000
2014-05-25 02:11:59,0.06,5.46,0.00,26.85,30.92,33.28,9.49,43.05,1011.26,2020.05,1800.99,2114.07,2273.05,500.13,487.84,39.08,0000 0000 0000 0000 000000
2014-05-25 02:16:59,0.06,5.46,0.00,26.86,30.95,33.29,9.43,42.98,1011.27,2020.05,1800.55,2113.87,2272.87,499.73,487.50,39.12,0000 0000 0000 0000 000000
2014-05-25 02:22:01,0.06,5.46,0.00,26.89,30.95,33.30,9.40,42.85,1011.35,2020.01,1800.06,2113.20,2272.18,500.00,487.71,39.16,0000 0000 0000 0000 000000
2014-05-25 02:27:02,0.01,5.46,0.00,26.92,30.96,33.30,9.45,42.88,1011.52,2020.01,1800.00,2113.04,2272.01,499.85,487.71,39.20,0000 0000 0000 0000 000000
2014-05-25 02:32:03,-0.00,5.46,0.00,26.92,30.97,33.32,9.35,43.40,1011.58,2020.01,1800.00,2113.00,2272.00,499.45,487.28,39.24,0000 0000 0000 0000 000000
2014-05-25 02:37:03,0.00,5.46,0.00,26.94,30.99,33.33,9.45,43.31,1011.70,2020.00,1799.98,2112.99,2271.98,499.96,487.94,39.28,0000 0000 0000 0000 000000
2014-05-25 02:42:04,0.00,5.46,0.00,26.97,31.00,33.35,9.37,42.93,1011.67,2020.00,1799.94,2112.97,2271.94,499.92,487.57,39.32,0000 0000 0000 0000 000000
2014-05-25 02:47:06,0.08,5.46,0.00,26.97,31.02,33.36,9.43,43.03,1011.69,2020.00,1799.56,2112.67,2271.41,499.99,487.87,39.37,0000 0000 0000 0000 000000
2014-05-25 02:52:07,0.04,5.47,0.00,26.99,31.02,33.37,9.34,42.84,1011.72,2019.99,1799.13,2112.19,2271.07,499.89,487.58,39.41,0000 0000 0000 0000 000000
2014-05-25 02:57:08,0.01,5.47,0.00,27.02,31.05,33.39,9.41,42.88,1011.71,2019.98,1799.03,2112.03,2271.02,500.12,487.83,39.45,0000 0000 0000 0000 000000
2014-05-25 03:02:09,-0.00,5.47,0.00,27.02,31.05,33.40,9.44,43.23,1011.73,2019.97,1799.00,2112.00,2271.00,499.70,487.34,39.49,0000 0000 0000 0000 000000
2014-05-25 03:07:10,-0.00,5.47,0.00,27.03,31.07,33.41,9.42,43.38,1011.74,2019.97,1798.99,2112.00,2270.98,499.95,487.72,39.53,0000 0000 0000 0000 000000
2014-05-25 03:12:11,0.00,5.47,0.00,27.06,31.08,33.42,9.39,43.09,1011.74,2019.95,1798.97,2111.99,2270.93,499.72,487.46,39.57,0000 0000 0000 0000 000000
2014-05-25 03:17:12,-0.00,5.47,0.00,27.06,31.10,33.43,9.49,42.95,1011.75,2019.92,1798.96,2111.97,2270.79,500.28,487.89,39.62,0000 0000 0000 0000 000000
2014-05-25 03:22:13,0.02,5.47,0.00,27.08,31.11,33.45,9.56,43.08,1011.74,2019.92,1798.89,2111.92,2270.46,500.43,488.09,39.66,0000 0000 0000 0000 000000
2014-05-25 03:27:14,0.02,5.47,0.00,27.10,31.12,33.46,9.40,42.91,1011.75,2019.85,1798.72,2111.71,2270.14,499.90,487.47,39.70,0000 0000 0000 0000 000000
2014-05-25 03:32:15,0.00,5.47,0.00,27.10,31.13,33.48,9.36,42.92,1011.80,2019.56,1798.26,2111.29,2270.01,499.81,487.29,39.74,0000 0000 0000 0000 000000
2014-05-25 03:37:16,-0.04,5.47,0.00,27.10,31.15,33.49,9.43,43.33,1011.79,2019.20,1798.03,2111.04,2270.00,500.40,487.90,39.78,0000 0000 0000 0000 000000
2014-05-25 03:42:17,-0.01,5.47,0.00,27.12,31.16,33.50,9.40,43.17,1011.95,2019.06,1798.00,2111.00,2270.00,500.13,487.75,39.82,0000 0000 0000 0000 000000
2014-05-25 03:47:18,-0.01,5.47,0.00,27.13,31.17,33.52,9.50,43.27,1012.17,2019.04,1798.00,2111.00,2269.97,499.83,487.55,39.86,0000 0000 0000 0000 000000
2014-05-25 03:52:19,0.00,5.47,0.00,27.13,31.18,33.53,9.51,43.19,1012.18,2019.04,1797.99,2111.00,2269.94,500.19,487.97,39.91,0000 0000 0000 0000 000000
2014-05-25 03:57:20,0.01,5.47,0.00,27.16,31.20,33.54,9.47,42.95,1012.17,2019.00,1797.98,2111.00,2269.69,500.37,488.07,39.95,0000 0000 0000 0000 000000
2014-05-25 04:02:22,0.01,5.47,0.00,27.17,31.21,33.55,9.59,43.40,1012.18,2019.01,1797.95,2111.00,2269.32,500.38,488.29,39.99,0000 0000 0000 0000 000000
2014-05-25 04:07:23,0.02,5.47,0.00,27.18,31.22,33.56,9.43,42.92,1012.22,2019.01,1797.76,2110.99,2269.08,500.09,487.94,40.03,0000 0000 0000 0000 000000
2014-05-25 04:12:24,0.01,5.47,0.00,27.21,31.24,33.57,9.42,42.75,1012.22,2019.00,1797.47,2110.93,2269.01,500.34,487.77,40.07,0000 0000 0000 0000 000000
2014-05-25 04:17:24,0.04,5.47,0.00,27.22,31.25,33.58,9.42,42.94,1012.22,2019.00,1797.12,2110.57,2269.00,500.34,487.90,40.11,0000 0000 0000 0000 000000
2014-05-25 04:22:25,0.02,5.47,0.00,27.23,31.26,33.59,9.48,42.77,1012.22,2019.00,1797.03,2110.17,2268.99,499.92,487.48,40.16,0000 0000 0000 0000 000000
2014-05-25 04:27:27,0.01,5.47,0.00,27.25,31.27,33.61,9.41,42.58,1012.22,2018.99,1797.00,2110.05,2268.94,499.99,487.53,40.20,0000 0000 0000 0000 000000
2014-05-25 04:32:28,0.01,5.48,0.00,27.25,31.29,33.61,9.45,43.40,1012.22,2018.98,1797.00,2110.00,2268.64,500.32,487.87,40.24,0000 0000 0000 0000 000000
2014-05-25 04:37:29,0.01,5.48,0.00,27.25,31.30,33.63,9.35,43.23,1012.22,2018.97,1796.98,2110.00,2268.28,500.17,487.69,40.28,0000 0000 0000 0000 000000
2014-05-25 04:42:30,0.00,5.48,0.00,27.27,31.31,33.65,9.43,43.28,1012.22,2018.92,1796.92,2109.99,2268.07,500.03,487.40,40.32,0000 0000 0000 0000 000000
2014-05-25 04:47:31,0.01,5.48,0.00,27.27,31.32,33.64,9.43,43.29,1012.22,2018.87,1796.73,2109.96,2268.01,500.01,487.63,40.36,0000 0000 0000 0000 000000
2014-05-25 04:52:32,0.01,5.48,0.00,27.27,31.33,33.67,9.46,43.41,1012.22,2018.64,1796.17,2109.70,2268.00,500.18,487.72,40.41,0000 0000 0000 0000 000000
2014-05-25 04:57:33,0.03,5.48,0.00,27.30,31.35,33.68,9.42,43.10,1012.23,2018.74,1796.09,2109.52,2268.00,499.87,487.45,40.45,0000 0000 0000 0000 000000
2014-05-25 05:02:35,-0.02,5.48,0.00,27.30,31.35,33.69,9.42,43.39,1012.22,2018.50,1796.00,2109.12,2267.96,499.99,487.59,40.49,0000 0000 0000 0000 000000
2014-05-25 05:07:36,0.02,5.48,0.00,27.30,31.37,33.70,9.44,43.38,1012.22,2018.55,1796.00,2109.02,2267.88,500.11,487.69,40.53,0000 0000 0000 0000 000000
2014-05-25 05:12:37,-0.02,5.48,0.00,27.32,31.37,33.71,9.45,43.37,1012.23,2018.28,1795.98,2109.00,2267.45,499.90,487.34,40.57,0000 0000 0000 0000 000000
2014-05-25 05:17:38,-0.00,5.48,0.00,27.32,31.37,33.71,9.43,43.24,1012.25,2018.15,1795.96,2109.00,2267.11,500.01,487.46,40.61,0000 0000 0000 0000 000000
2014-05-25 05:22:39,-0.01,5.48,0.00,27.32,31.38,33.72,9.40,43.27,1012.34,2018.07,1795.86,2109.00,2267.01,499.95,487.46,40.65,0000 0000 0000 0000 000000
2014-05-25 05:27:40,0.03,5.48,0.00,27.35,31.40,33.73,9.37,43.21,1012.50,2018.05,1795.35,2108.96,2267.00,499.75,487.48,40.70,0000 0000 0000 0000 000000
2014-05-25 05:32:41,0.04,5.48,0.00,27.34,31.40,33.75,9.46,43.29,1012.38,2018.03,1795.05,2108.63,2266.98,500.21,487.50,40.74,0000 0000 0000 0000 000000
2014-05-25 05:37:43,0.02,5.48,0.00,27.33,31.41,33.76,9.42,43.13,1012.30,2018.01,1795.00,2108.18,2266.93,500.25,487.71,40.78,0000 0000 0000 0000 000000
2014-05-25 05:42:44,0.01,5.48,0.00,27.35,31.42,33.76,9.42,43.30,1012.28,2018.03,1795.00,2108.09,2266.82,499.76,487.33,40.82,0000 0000 0000 0000 000000
2014-05-25 05:47:45,0.03,5.48,0.00,27.34,31.42,33.77,9.37,43.22,1012.29,2018.01,1794.96,2108.01,2266.22,499.87,487.37,40.86,0000 0000 0000 0000 000000
2014-05-25 05:52:46,0.02,5.48,0.00,27.34,31.43,33.78,9.49,43.25,1012.29,2018.00,1794.58,2108.00,2266.01,500.12,487.65,40.90,0000 0000 0000 0000 000000
2014-05-25 05:57:48,0.02,5.48,0.00,27.35,31.45,33.80,9.49,43.05,1012.39,2018.01,1794.08,2107.97,2266.00,500.37,487.84,40.95,0000 0000 0000 0000 000000
2014-05-25 06:02:49,0.04,5.49,0.00,27.35,31.45,33.80,9.50,43.23,1012.45,2018.00,1794.00,2107.62,2265.90,500.29,487.77,40.99,0000 0000 0000 0000 000000
2014-05-25 06:07:50,0.09,5.49,0.00,27.34,31.45,33.81,9.39,43.14,1012.52,2018.00,1793.52,2107.05,2265.24,499.94,487.60,41.03,0000 0000 0000 0000 000000
2014-05-25 06:12:51,0.12,5.49,0.00,27.36,31.46,33.82,9.49,43.23,1012.40,2018.00,1792.67,2106.41,2264.60,500.30,487.72,41.07,0000 0000 0000 0000 000000
2014-05-25 06:17:53,0.04,5.50,0.00,27.35,31.47,33.82,9.42,43.13,1012.40,2018.00,1791.99,2105.91,2263.98,499.69,487.33,41.11,0000 0000 0000 0000 000000
2014-05-25 06:22:53,0.13,5.50,0.00,27.35,31.47,33.82,9.34,42.87,1012.55,2018.00,1791.17,2105.13,2263.16,499.83,487.42,41.15,0000 0000 0000 0000 000000
2014-05-25 06:27:54,0.03,5.50,0.00,27.37,31.48,33.82,9.39,42.91,1012.64,2018.00,1790.81,2104.91,2262.88,500.22,487.79,41.20,0000 0000 0000 0000 000000
2014-05-25 06:32:55,0.11,5.51,0.00,27.37,31.50,33.83,9.44,43.40,1012.58,2018.00,1790.01,2104.16,2262.10,499.95,487.35,41.24,0000 0000 0000 0000 000000
2014-05-25 06:37:57,0.13,5.51,0.00,27.37,31.50,33.83,9.46,43.25,1012.61,2018.00,1789.07,2103.50,2261.37,500.18,487.74,41.28,0000 0000 0000 0000 000000
2014-05-25 06:42:58,0.13,5.52,0.00,27.37,31.50,33.84,9.47,43.08,1012.69,2017.99,1788.09,2102.65,2260.47,500.11,487.68,41.32,0000 0000 0000 0000 000000
2014-05-25 06:47:59,0.08,5.52,0.00,27.37,31.50,33.84,9.42,42.89,1012.70,2017.99,1787.21,2102.00,2259.82,499.86,487.41,41.36,0000 0000 0000 0000 000000
2014-05-25 06:53:00,0.11,5.53,0.00,27.38,31.52,33.85,9.58,43.15,1012.71,2017.98,1786.68,2101.36,2259.06,500.50,488.09,41.40,0000 0000 0000 0000 000000
2014-05-25 06:58:02,0.03,5.53,0.00,27.40,31.52,33.86,9.52,42.98,1012.71,2017.99,1786.05,2101.01,2258.89,500.27,487.78,41.44,0000 0000 0000 0000 000000
2014-05-25 07:03:03,0.11,5.53,0.00,27.40,31.52,33.86,9.51,42.96,1012.71,2017.98,1785.57,2100.59,2258.11,500.42,487.98,41.49,0000 0000 0000 0000 000000
2014-05-25 07:08:04,0.06,5.54,0.00,27.41,31.53,33.87,9.46,42.73,1012.70,2017.97,1784.94,2100.01,2257.54,499.95,487.35,41.53,0000 0000 0000 0000 000000
2014-05-25 07:13:05,0.11,5.54,0.00,27.43,31.55,33.88,9.38,42.92,1012.71,2017.97,1784.15,2099.45,2256.99,499.91,487.41,41.57,0000 0000 0000 0000 000000
2014-05-25 07:18:06,0.04,5.54,0.00,27.42,31.55,33.88,9.40,42.81,1012.71,2017.94,1783.84,2098.99,2256.42,499.76,487.26,41.61,0000 0000 0000 0000 000000
2014-05-25 07:23:07,0.07,5.55,0.00,27.43,31.55,33.89,9.36,43.02,1012.71,2017.93,1783.12,2098.68,2256.00,499.34,486.85,41.65,0000 0000 0000 0000 000000
2014-05-25 07:28:09,0.03,5.55,0.00,27.45,31.56,33.89,9.41,43.51,1012.71,2017.90,1782.97,2098.05,2255.92,499.80,487.32,41.69,0000 0000 0000 0000 000000
2014-05-25 07:33:10,0.02,5.55,0.00,27.45,31.57,33.90,9.45,43.46,1012.71,2017.64,1782.45,2097.99,2255.18,499.85,487.48,41.74,0000 0000 0000 0000 000000
2014-05-25 07:38:11,-0.02,5.55,0.00,27.46,31.57,33.90,9.44,43.47,1012.72,2017.42,1782.03,2097.81,2255.00,499.93,487.34,41.78,0000 0000 0000 0000 000000
2014-05-25 07:43:12,0.05,5.55,0.00,27.47,31.57,33.90,9.45,43.63,1012.81,2017.34,1781.99,2097.22,2254.94,500.05,487.49,41.82,0000 0000 0000 0000 000000
2014-05-25 07:48:13,0.02,5.55,0.00,27.47,31.58,33.91,9.43,43.61,1012.98,2017.23,1781.79,2097.01,2254.39,499.90,487.38,41.86,0000 0000 0000 0000 000000
2014-05-25 07:53:14,0.01,5.55,0.00,27.47,31.60,33.92,9.44,43.38,1013.18,2017.17,1781.31,2097.00,2254.05,499.68,487.28,41.90,0000 0000 0000 0000 000000
2014-05-25 07:58:15,-0.00,5.55,0.00,27.49,31.60,33.92,9.35,43.42,1013.17,2017.05,1781.05,2096.98,2254.00,499.82,487.43,41.94,0000 0000 0000 0000 000000
2014-05-25 08:03:16,0.02,5.55,0.00,27.48,31.60,33.94,9.42,43.27,1013.18,2017.04,1781.00,2096.87,2254.00,500.17,487.83,41.98,0000 0000 0000 0000 000000
2014-05-25 08:08:17,0.02,5.55,0.00,27.47,31.60,33.95,9.42,43.15,1013.20,2017.03,1780.99,2096.44,2253.96,500.17,487.82,42.03,0000 0000 0000 0000 000000
2014-05-25 08:13:19,0.03,5.56,0.00,27.47,31.60,33.94,9.45,43.38,1013.06,2017.04,1780.87,2096.13,2253.77,500.04,487.64,42.07,0000 0000 0000 0000 000000
2014-05-25 08:18:20,0.06,5.56,0.00,27.45,31.61,33.95,9.52,43.17,1013.16,2017.02,1780.21,2096.01,2253.15,500.01,487.71,42.11,0000 0000 0000 0000 000000
2014-05-25 08:23:20,0.01,5.56,0.00,27.45,31.62,33.96,9.53,43.16,1012.91,2017.02,1780.02,2096.00,2253.01,500.23,487.62,42.15,0000 0000 0000 0000 000000
2014-05-25 08:28:22,0.00,5.56,0.00,27.43,31.62,33.96,9.36,43.28,1012.75,2017.02,1779.99,2095.97,2253.00,499.88,487.21,42.19,0000 0000 0000 0000 000000
2014-05-25 08:33:23,0.01,5.56,0.00,27.41,31.62,33.97,9.43,43.08,1013.17,2017.02,1779.92,2095.90,2252.97,500.37,488.06,42.23,0000 0000 0000 0000 000000
2014-05-25 08:38:24,0.03,5.56,0.00,27.41,31.62,33.97,9.35,42.92,1013.21,2017.03,1779.79,2095.62,2252.89,499.93,487.66,42.28,0000 0000 0000 0000 000000
2014-05-25 08:43:25,0.07,5.56,0.00,27.41,31.62,33.97,9.48,43.10,1013.20,2017.01,1779.17,2095.18,2252.43,500.28,488.18,42.32,0000 0000 0000 0000 000000
2014-05-25 08:48:26,0.02,5.56,0.00,27.40,31.62,33.97,9.38,43.10,1013.20,2017.03,1779.00,2095.03,2252.07,500.03,487.90,42.36,0000 0000 0000 0000 000000
2014-05-25 08:53:27,-0.00,5.57,0.00,27.40,31.62,33.97,9.46,43.02,1013.21,2017.02,1779.00,2095.00,2252.01,500.27,488.05,42.40,0000 0000 0000 0000 000000
2014-05-25 08:58:29,0.00,5.57,0.00,27.39,31.62,33.97,9.44,43.03,1013.21,2017.02,1778.98,2095.00,2252.00,500.07,488.13,42.44,0000 0000 0000 0000 000000
2014-05-25 09:03:30,0.00,5.57,0.00,27.37,31.62,33.97,9.24,42.86,1013.21,2017.02,1778.90,2094.99,2252.00,499.44,487.27,42.48,0000 0000 0000 0000 000000
2014-05-25 09:08:31,0.04,5.57,0.00,27.37,31.62,33.96,9.46,42.84,1013.22,2017.02,1778.32,2094.94,2251.97,500.18,487.99,42.53,0000 0000 0000 0000 000000
2014-05-25 09:13:32,0.02,5.57,0.00,27.35,31.62,33.96,9.51,42.99,1013.24,2017.01,1778.03,2094.79,2251.84,500.30,488.17,42.57,0000 0000 0000 0000 000000
2014-05-25 09:18:34,0.05,5.57,0.00,27.33,31.61,33.98,9.45,43.00,1013.41,2017.03,1778.00,2094.32,2251.33,500.26,488.40,42.61,0000 0000 0000 0000 000000
2014-05-25 09:23:35,0.01,5.57,0.00,27.35,31.60,33.97,9.40,42.87,1013.64,2017.05,1778.00,2094.13,2251.13,499.89,487.87,42.65,0000 0000 0000 0000 000000
2014-05-25 09:28:36,0.01,5.57,0.00,27.32,31.60,33.96,9.37,43.03,1013.69,2017.07,1777.97,2094.03,2251.01,499.86,487.96,42.69,0000 0000 0000 0000 000000
2014-05-25 09:33:37,0.01,5.57,0.00,27.30,31.60,33.97,9.44,43.22,1013.69,2017.09,1777.87,2094.00,2251.00,499.75,487.94,42.73,0000 0000 0000 0000 000000
2014-05-25 09:38:38,0.02,5.57,0.00,27.30,31.60,33.96,9.46,43.37,1013.69,2017.03,1777.49,2094.00,2251.00,500.63,488.87,42.77,0000 0000 0000 0000 000000
2014-05-25 09:43:39,0.02,5.57,0.00,27.29,31.60,33.95,9.39,43.03,1013.69,2017.09,1777.10,2094.00,2250.99,499.88,487.88,42.82,0000 0000 0000 0000 000000
2014-05-25 09:48:41,0.00,5.57,0.00,27.27,31.59,33.95,9.51,43.08,1013.69,2017.08,1777.02,2093.98,2250.94,500.04,488.07,42.86,0000 0000 0000 0000 000000
2014-05-25 09:53:42,0.01,5.57,0.00,27.27,31.58,33.94,9.44,43.06,1013.70,2017.13,1777.00,2093.96,2250.87,500.11,488.43,42.90,0000 0000 0000 0000 000000
2014-05-25 09:58:43,0.03,5.58,0.00,27.25,31.57,33.95,9.54,43.41,1013.71,2017.18,1776.98,2093.82,2250.52,499.85,488.06,42.94,0000 0000 0000 0000 000000
2014-05-25 10:03:43,0.04,5.58,0.00,27.22,31.57,33.93,9.44,43.35,1013.84,2017.24,1776.93,2093.46,2250.18,499.87,488.22,42.98,0000 0000 0000 0000 000000
2014-05-25 10:08:45,0.01,5.58,0.00,27.23,31.57,33.92,9.45,43.42,1014.05,2017.12,1776.79,2093.14,2250.03,500.01,488.47,43.02,0000 0000 0000 0000 000000
2014-05-25 10:13:45,0.07,5.58,0.00,27.21,31.56,33.92,9.46,43.39,1014.08,2017.34,1776.42,2093.08,2250.01,499.91,488.57,43.07,0000 0000 0000 0000 000000
2014-05-25 10:18:46,0.03,5.58,0.00,27.20,31.55,33.91,9.45,43.42,1014.11,2017.52,1776.04,2093.01,2250.00,500.55,489.06,43.11,0000 0000 0000 0000 000000
2014-05-25 10:23:48,-0.00,5.58,0.00,27.20,31.55,33.91,9.46,43.38,1014.13,2017.56,1776.01,2093.00,2250.00,500.05,488.60,43.15,0000 0000 0000 0000 000000
2014-05-25 10:28:49,0.05,5.58,0.00,27.18,31.55,33.90,9.50,43.17,1014.16,2017.73,1776.00,2093.00,2249.99,500.14,488.75,43.19,0000 0000 0000 0000 000000
2014-05-25 10:33:50,0.00,5.58,0.00,27.16,31.53,33.89,9.45,43.48,1014.16,2017.80,1776.00,2093.00,2249.96,499.85,488.48,43.23,0000 0000 0000 0000 000000
2014-05-25 10:38:51,0.01,5.58,0.00,27.17,31.52,33.88,9.54,43.42,1014.17,2017.83,1775.97,2092.99,2249.93,500.29,488.81,43.27,0000 0000 0000 0000 000000
2014-05-25 10:43:52,0.03,5.59,0.00,27.14,31.52,33.88,9.42,43.28,1014.17,2017.92,1775.85,2092.97,2249.69,499.72,488.37,43.32,0000 0000 0000 0000 000000
2014-05-25 10:48:53,0.05,5.59,0.00,27.12,31.51,33.87,9.51,43.49,1014.17,2017.95,1775.37,2092.87,2249.23,500.04,488.80,43.36,0000 0000 0000 0000 000000
2014-05-25 10:53:55,0.02,5.59,0.00,27.13,31.50,33.86,9.45,43.35,1014.17,2017.95,1775.10,2092.60,2249.07,500.06,488.76,43.40,0000 0000 0000 0000 000000
2014-05-25 10:58:56,0.02,5.59,0.00,27.12,31.50,33.85,9.41,43.18,1014.17,2017.94,1775.02,2092.40,2249.03,499.66,488.47,43.44,0000 0000 0000 0000 000000
2014-05-25 11:03:57,0.01,5.59,0.00,27.12,31.49,33.84,9.54,43.12,1014.18,2017.95,1775.00,2092.15,2249.00,500.37,489.07,43.48,0000 0000 0000 0000 000000
2014-05-25 11:08:59,0.01,5.59,0.00,27.11,31.47,33.82,9.53,43.36,1014.19,2017.96,1775.00,2092.10,2249.00,500.32,488.71,43.52,0000 0000 0000 0000 000000
2014-05-25 11:14:00,-0.00,5.59,0.00,27.09,31.47,33.81,9.46,43.23,1014.18,2017.97,1775.00,2092.04,2249.00,499.99,488.91,43.57,0000 0000 0000 0000 000000
2014-05-25 11:19:01,0.00,5.59,0.00,27.07,31.46,33.82,9.42,43.16,1014.18,2017.98,1775.00,2092.02,2249.00,499.84,488.58,43.61,0000 0000 0000 0000 000000
2014-05-25 11:24:02,-0.00,5.59,0.00,27.07,31.45,33.80,9.52,43.15,1014.20,2017.98,1774.98,2092.01,2249.00,500.05,488.91,43.65,0000 0000 0000 0000 000000
2014-05-25 11:29:03,0.00,5.59,0.00,27.06,31.44,33.79,9.45,43.17,1014.18,2017.99,1774.96,2092.00,2249.00,500.08,488.87,43.69,0000 0000 0000 0000 000000
2014-05-25 11:34:04,0.00,5.59,0.00,27.04,31.42,33.79,9.47,43.13,1014.19,2017.99,1774.92,2092.00,2248.97,500.04,488.95,43.73,0000 0000 0000 0000 000000
2014-05-25 11:39:05,0.01,5.59,0.00,27.03,31.42,33.77,9.44,43.38,1014.20,2017.99,1774.65,2092.00,2248.98,499.87,488.79,43.77,0000 0000 0000 0000 000000
2014-05-25 11:44:07,0.03,5.59,0.00,27.00,31.40,33.77,9.42,43.35,1014.20,2017.99,1774.14,2092.00,2248.90,500.09,488.99,43.81,0000 0000 0000 0000 000000
2014-05-25 11:49:08,0.01,5.59,0.00,26.99,31.40,33.76,9.43,43.22,1014.20,2017.99,1774.00,2091.98,2248.67,499.75,488.70,43.86,0000 0000 0000 0000 000000
2014-05-25 11:54:09,0.01,5.60,0.00,26.98,31.39,33.75,9.43,43.07,1014.20,2018.00,1774.00,2091.96,2248.37,500.25,489.22,43.90,0000 0000 0000 0000 000000
2014-05-25 11:59:10,-0.00,5.60,0.00,26.97,31.37,33.74,9.48,43.11,1014.21,2018.00,1774.00,2091.96,2248.31,500.57,489.47,43.94,0000 0000 0000 0000 000000
2014-05-25 12:04:12,0.01,5.60,0.00,26.95,31.37,33.73,9.42,43.28,1014.21,2018.00,1773.99,2091.91,2248.15,500.02,489.14,43.98,0000 0000 0000 0000 000000
2014-05-25 12:09:13,0.03,5.60,0.00,26.95,31.37,33.72,9.48,43.48,1014.19,2018.03,1773.92,2091.59,2248.01,499.57,488.55,44.02,0000 0000 0000 0000 000000
2014-05-25 12:14:14,0.06,5.60,0.00,26.94,31.36,33.71,9.53,43.24,1014.20,2018.09,1773.46,2091.16,2248.00,500.28,489.38,44.06,0000 0000 0000 0000 000000
2014-05-25 12:19:15,0.05,5.60,0.00,26.90,31.35,33.70,9.48,43.14,1014.20,2018.20,1773.02,2091.01,2247.99,500.26,489.24,44.11,0000 0000 0000 0000 000000
2014-05-25 12:24:17,-0.02,5.60,0.00,26.89,31.35,33.69,9.44,43.11,1014.21,2018.14,1773.00,2091.00,2247.80,499.91,489.01,44.15,0000 0000 0000 0000 000000
2014-05-25 12:29:18,0.03,5.60,0.00,26.86,31.34,33.69,9.42,43.33,1014.31,2018.19,1772.97,2090.99,2247.48,500.02,489.28,44.19,0000 0000 0000 0000 000000
2014-05-25 12:34:19,0.02,5.60,0.00,26.83,31.32,33.68,9.51,43.17,1014.65,2018.25,1772.98,2090.97,2247.29,499.99,489.52,44.23,0000 0000 0000 0000 000000
2014-05-25 12:39:20,0.01,5.60,0.00,26.82,31.32,33.68,9.55,43.35,1014.66,2018.29,1772.97,2090.96,2247.12,500.18,489.67,44.27,0000 0000 0000 0000 000000
2014-05-25 12:44:21,0.01,5.60,0.00,26.79,31.30,33.66,9.53,43.32,1014.64,2018.53,1772.97,2090.96,2247.14,499.99,489.51,44.31,0000 0000 0000 0000 000000
2014-05-25 12:49:22,0.03,5.61,0.00,26.78,31.30,33.64,9.51,43.26,1014.66,2018.61,1772.86,2090.92,2247.05,500.03,489.53,44.35,0000 0000 0000 0000 000000
2014-05-25 12:54:23,0.06,5.61,0.00,26.78,31.28,33.64,9.47,43.21,1014.65,2018.80,1772.72,2090.93,2247.02,500.13,489.57,44.40,0000 0000 0000 0000 000000
2014-05-25 12:59:24,0.02,5.61,0.00,26.75,31.27,33.62,9.45,43.25,1014.41,2018.93,1772.39,2090.90,2247.03,499.86,489.34,44.44,0000 0000 0000 0000 000000